Theta_e
289 291 290 289 289 290 287 289 285 287 288 292 294 297 300 302 303 303 303 304 306 304 304 305 306 306 308 307 307 307 310 309 308 311 315 319 320 322 324 324 324 324 324 325
286 290 290 288 291 291 291 290 289 291 289 296 297 298 298 299 300 300 302 303 305 306 305 305 305 306 306 306 306 308 308 309 311 312 314 313 317 317 320 321 322 323 323 326
279 288 287 282 290 291 292 294 292 286 290 296 295 297 296 297 298 298 300 302 302 302 302 304 304 305 305 306 308 307 307 309 309 310 311 314 315 317 316 316 320 321 322 323
279 284 276 290 296 296 293 294 295 295 296 295 295 296 297 298 298 299 299 300 300 300 301 301 303 304 305 306 307 307 306 307 308 308 309 312 314 312 312 315 316 322 324 325
277 276 286 290 292 293 290 290 294 293 295 295 296 296 295 298 299 298 299 300 300 302 301 301 302 303 304 305 306 306 305 305 307 308 308 310 310 310 311 315 317 318 322 326
280 278 275 289 295 298 296 283 294 295 293 293 294 287 291 297 299 299 300 301 301 302 301 301 301 302 303 304 304 304 305 306 306 308 309 309 309 310 311 313 317 319 322 326
281 280 285 294 296 296 281 283 294 294 294 293 291 293 296 298 298 299 300 301 302 302 301 302 303 303 303 304 303 305 306 307 308 308 309 310 311 312 310 314 318 319 322 324
282 281 277 297 294 286 291 294 294 294 295 294 296 296 296 295 295 296 297 298 299 299 299 301 302 302 301 301 304 306 307 307 308 308 309 311 310 311 313 314 315 317 320 323
286 282 294 296 292 293 295 293 294 295 296 296 293 293 294 294 294 296 297 297 299 298 298 300 302 302 301 302 304 306 306 306 307 308 310 310 310 309 310 313 316 318 321 323
285 292 292 294 294 295 296 296 297 298 295 294 293 294 294 295 294 294 295 296 297 297 297 298 301 301 302 303 305 305 306 306 307 308 309 310 312 311 311 314 316 319 321 323
287 291 291 293 294 295 297 299 299 298 295 295 294 292 291 291 292 292 292 293 294 295 296 297 298 299 302 304 305 304 305 306 306 307 308 309 310 312 314 316 316 318 322 326
284 290 290 291 294 298 297 297 298 295 294 295 294 291 291 289 289 290 289 291 291 291 292 294 297 297 300 303 304 305 304 304 305 307 309 310 310 310 297 296 297 301 304 321
291 294 294 296 297 299 298 299 297 296 295 293 292 289 288 286 287 289 290 291 293 294 294 294 294 296 299 302 305 306 305 307 309 307 309 311 312 313 312 302 298 300 303 304
294 294 293 296 294 298 299 297 298 295 295 294 290 289 288 289 293 294 295 299 303 303 305 299 296 296 299 301 304 305 308 302 309 310 311 312 314 316 314 315 313 309 300 306
293 295 295 297 299 300 299 296 294 294 293 291 290 290 291 291 292 295 300 308 302 300 300 299 297 297 301 303 302 305 308 311 310 314 316 315 318 319 317 314 310 308 308 301
294 295 296 296 298 299 297 295 293 292 292 290 289 290 291 293 294 296 300 303 306 302 300 300 300 302 304 305 307 307 312 306 307 318 318 318 319 317 316 317 316 315 313 311
291 292 295 296 296 297 297 295 294 293 293 291 291 292 292 292 293 294 296 300 304 303 304 309 305 307 307 308 314 314 315 315 306 317 319 319 318 317 316 315 315 315 315 308
295 296 297 298 296 297 298 296 295 294 293 293 293 292 291 291 290 292 295 297 297 300 298 300 308 317 319 318 317 316 316 321 321 320 320 318 317 316 315 314 312 311 310 304
294 295 297 297 298 298 298 298 295 295 295 294 293 291 291 291 291 292 293 294 292 292 292 299 302 310 320 315 318 324 323 321 319 318 317 310 315 315 313 312 311 312 311 310
293 295 296 297 298 298 298 299 295 295 295 294 294 292 290 290 290 291 291 293 290 291 294 299 309 322 322 317 312 322 320 318 316 315 314 314 313 312 311 305 309 308 308 307
293 294 295 295 295 297 298 299 299 295 295 294 294 293 291 291 291 291 289 288 289 291 294 296 300 306 321 316 320 320 318 316 315 313 312 311 310 308 307 307 307 305 305 304
294 294 295 294 293 295 297 298 298 296 295 294 295 294 292 290 290 290 291 288 289 289 293 294 296 294 307 309 320 319 317 315 314 312 311 310 307 305 304 303 303 302 302 301
293 294 295 293 293 293 295 296 296 299 297 294 294 294 293 291 291 287 286 290 289 288 292 290 288 290 294 319 319 319 317 314 312 311 309 308 306 304 303 301 301 300 299 298
293 294 294 294 293 292 291 293 295 298 298 296 295 297 294 291 291 291 291 290 287 288 290 288 288 290 296 313 317 317 316 315 313 312 307 300 303 301 301 301 299 298 296 295
292 292 292 292 291 291 292 293 294 295 298 298 294 296 296 295 291 291 291 290 288 288 289 289 288 290 299 302 304 306 311 314 314 311 308 305 302 301 300 299 297 295 294 294
291 290 291 291 290 291 293 293 290 292 295 294 295 294 296 296 294 292 291 289 289 288 288 289 289 291 292 295 297 298 301 304 309 308 306 304 303 300 297 295 294 293 292 292
291 291 291 290 291 292 292 292 290 290 293 292 295 293 294 295 293 292 290 289 288 287 288 287 288 288 289 290 293 294 296 297 295 302 301 299 297 295 293 293 291 290 290 290
Wind_Speed
9 12 14 13 13 13 14 14 10 15 15 11 5 2 5 7 8 1 8 9 8 9 5 2 3 3 2 3 0 1 1 4 6 7 5 7 8 8 8 8 11 12 13 13
7 11 15 16 16 17 17 19 17 9 14 11 10 10 5 6 2 7 8 7 8 9 5 7 6 3 4 4 4 3 5 5 5 5 7 6 8 10 8 8 10 13 14 13
4 8 15 8 7 4 8 7 7 3 6 5 5 8 8 8 7 7 7 9 7 5 5 5 3 2 4 5 2 4 5 6 6 8 10 7 9 10 8 8 8 11 15 14
5 7 2 2 13 7 9 4 9 3 8 11 13 15 16 12 12 10 6 8 7 7 7 7 5 6 6 7 8 8 8 8 9 11 13 11 11 12 8 7 9 10 11 13
2 2 11 5 8 10 11 15 12 14 15 16 18 18 19 9 7 12 17 18 15 13 12 9 9 8 9 11 11 11 13 12 11 12 15 13 14 13 8 7 9 9 7 11
4 2 4 6 15 13 13 7 16 15 16 20 20 18 17 11 16 18 20 18 19 18 8 8 7 8 10 14 13 14 15 14 14 14 11 11 13 13 7 7 10 9 7 10
4 4 5 10 10 11 5 8 16 15 17 19 18 16 25 20 22 21 21 23 21 20 14 12 10 11 15 15 16 15 15 16 15 15 12 9 11 10 5 8 8 7 7 7
1 3 7 12 6 6 7 11 15 19 20 24 24 20 21 27 26 26 25 25 22 20 20 19 17 17 19 18 16 15 15 15 15 12 8 10 12 10 6 7 7 7 6 8
3 6 10 7 7 6 12 15 20 21 22 20 27 30 32 32 30 26 26 23 23 21 22 20 19 17 18 17 14 14 14 13 13 12 11 12 9 6 5 5 6 7 7 8
6 3 11 14 7 15 17 20 21 23 19 25 29 31 30 26 25 24 23 22 21 21 21 21 19 17 21 16 15 14 14 13 10 11 12 11 9 6 6 7 6 6 7 9
7 8 16 9 17 20 22 20 22 20 22 24 30 28 27 25 26 24 24 23 21 22 21 22 22 18 18 17 15 15 13 11 10 9 11 9 8 8 8 8 8 8 9 10
5 15 10 18 21 22 24 24 20 19 27 29 25 27 27 24 23 24 25 25 23 23 21 22 19 18 18 14 15 14 11 9 10 9 8 7 8 6 4 5 14 15 17 12
5 12 17 18 19 23 23 25 17 24 28 30 25 25 23 23 23 29 26 28 26 26 24 22 18 17 16 15 14 13 12 11 8 8 7 8 7 6 7 2 7 21 20 18
10 12 16 13 18 24 24 15 19 26 24 21 24 23 20 20 23 21 21 22 15 18 5 14 16 15 15 14 12 11 12 13 9 8 9 9 7 7 7 8 4 7 14 17
13 14 15 18 21 19 15 14 25 25 27 24 22 21 22 23 22 20 17 11 13 17 15 14 14 13 12 10 10 10 8 9 11 10 8 10 8 7 9 9 9 13 12 11
16 15 17 20 21 22 16 19 24 24 26 24 25 24 24 20 17 16 18 17 12 10 9 10 8 8 9 9 9 7 10 6 3 6 6 11 8 9 9 10 12 12 12 11
14 14 18 19 20 22 21 16 17 23 24 25 25 24 21 21 20 21 18 16 14 14 13 3 7 8 9 9 8 3 3 5 4 6 7 12 10 10 10 12 12 12 10 7
12 14 16 17 19 19 21 16 16 21 24 25 23 22 22 23 21 21 19 17 20 18 19 18 13 3 3 8 8 7 9 13 13 11 12 12 12 11 12 12 12 12 11 10
14 16 17 18 18 19 19 17 15 16 22 23 23 22 19 19 20 20 21 22 24 23 21 19 19 4 3 8 6 9 10 13 13 12 13 14 13 12 13 12 11 11 11 11
15 15 16 17 19 19 18 18 15 15 20 23 22 23 23 23 22 20 18 15 16 12 17 18 15 9 9 8 12 11 14 14 13 12 12 12 12 12 11 12 12 12 11 10
13 14 15 17 17 19 17 18 16 17 17 23 22 22 20 18 20 20 23 18 23 25 21 21 15 10 5 4 10 11 12 13 12 11 12 12 12 12 12 12 12 11 11 11
10 12 15 15 16 17 17 17 19 13 15 19 21 21 21 20 19 17 12 14 14 29 15 12 11 13 5 14 10 11 12 13 11 10 11 11 11 11 11 11 11 10 10 10
10 10 12 11 15 16 16 16 18 18 15 12 18 18 18 13 12 16 17 21 15 21 13 13 19 17 11 9 9 11 12 12 11 10 10 11 11 11 11 10 10 10 10 9
7 10 10 6 9 12 16 17 17 16 17 8 14 13 15 12 11 11 12 16 22 22 14 15 17 18 13 9 9 9 9 10 10 11 11 12 11 11 11 11 11 10 10 10
5 6 7 8 9 9 12 15 14 14 16 16 11 11 12 11 10 11 12 12 20 18 14 20 22 20 12 10 9 8 6 8 9 9 11 11 11 12 11 11 11 10 10 9
3 4 4 6 6 7 8 9 10 10 11 12 9 10 7 9 10 11 12 16 15 17 13 12 13 12 11 11 11 10 8 7 8 9 10 11 12 11 12 13 12 11 10 10
5 7 4 5 5 7 9 8 10 11 11 12 10 10 10 8 11 12 13 13 12 11 11 11 11 13 11 11 10 10 9 9 10 9 10 10 10 10 10 11 11 11 11 12
Wind_Direction
300 305 300 289 256 251 243 234 221 271 252 252 354 65 15 253 243 120 266 249 238 259 268 309 348 332 40 79 113 201 112 315 301 262 253 252 248 217 220 224 246 248 250 251
284 298 288 288 285 274 241 239 254 278 303 29 341 335 5 305 330 206 225 248 251 261 325 321 318 239 205 202 222 232 226 236 263 293 282 264 264 250 229 231 244 258 254 254
272 331 315 300 13 12 308 296 23 36 300 331 320 324 322 321 306 303 273 246 262 301 287 265 256 262 276 259 243 265 253 238 243 270 272 266 270 266 231 231 233 249 259 251
278 323 279 61 31 44 342 348 2 3 343 328 332 327 316 306 298 293 337 321 308 295 277 261 245 245 239 226 221 222 230 238 243 250 258 253 265 263 256 240 238 241 250 251
236 275 284 11 12 325 348 312 23 350 337 331 325 326 300 294 312 327 314 300 285 273 257 236 231 239 247 253 239 231 233 233 243 249 251 240 250 260 259 254 251 242 237 254
345 335 293 34 333 351 294 262 360 349 334 330 334 311 297 312 310 302 292 282 279 274 257 243 233 218 232 243 238 236 246 248 247 249 239 230 249 246 253 246 258 257 248 250
236 248 268 8 2 325 22 306 328 330 320 312 298 278 298 304 294 286 282 278 277 273 262 251 247 236 239 242 242 244 248 250 243 241 242 222 254 260 231 254 257 255 251 262
8 275 293 14 7 13 291 309 325 319 314 307 296 297 293 296 295 291 285 280 278 275 269 262 255 249 249 245 247 245 243 241 243 232 238 241 237 248 234 234 242 248 249 264
188 242 310 359 325 342 326 328 318 311 310 320 315 305 300 298 294 290 286 279 275 268 270 263 254 241 242 239 235 231 233 234 237 242 239 240 240 235 245 249 249 258 254 248
6 289 350 319 338 326 324 311 308 307 315 314 303 301 297 294 292 290 284 278 273 265 257 256 248 244 248 233 232 230 226 223 219 229 236 237 234 227 221 234 237 240 251 248
265 286 334 310 318 320 319 311 302 305 312 310 305 302 298 296 293 288 286 280 274 267 259 252 248 241 237 227 221 226 223 223 227 232 235 234 231 224 229 234 224 239 245 235
286 314 291 291 306 311 311 319 307 327 317 309 307 303 299 296 294 288 285 282 273 263 253 248 238 231 236 225 216 216 217 222 224 227 229 225 228 234 163 306 275 249 239 202
290 299 293 301 314 311 309 316 334 325 318 313 315 304 303 290 290 290 285 281 275 266 249 233 220 216 220 221 201 204 218 223 215 202 215 225 218 225 249 304 241 206 188 161
295 321 316 317 310 308 306 322 336 320 316 321 313 306 304 301 303 305 301 299 329 331 211 180 181 195 202 204 211 212 216 218 219 216 221 224 222 222 188 192 126 114 79 133
330 323 308 304 310 327 320 345 338 327 329 330 327 323 324 325 325 324 325 358 21 40 67 114 152 174 189 196 201 221 241 216 207 215 218 228 199 137 123 96 188 118 114 82
318 315 316 322 322 339 345 353 340 338 333 335 332 337 335 334 332 346 3 358 19 40 76 100 122 147 170 184 202 226 239 169 185 190 167 129 117 107 134 145 108 109 107 112
322 322 321 329 340 340 343 358 349 342 336 339 341 336 340 347 355 360 352 359 18 37 23 98 132 160 176 195 204 130 134 128 122 162 124 123 121 127 117 100 101 101 97 102
320 320 326 334 334 339 342 349 357 352 345 341 344 347 352 358 353 352 353 10 26 20 12 352 350 49 86 136 162 158 199 144 151 128 116 112 114 107 104 100 97 101 98 83
338 334 334 340 337 340 341 347 0 352 352 348 352 356 353 360 359 358 356 16 19 9 345 334 321 261 196 162 190 106 90 94 94 97 104 111 108 107 107 106 107 101 96 93
343 336 339 339 341 344 344 353 1 0 358 352 353 1 0 0 357 2 5 22 18 350 330 345 2 73 77 54 77 94 98 99 102 99 100 101 105 103 101 95 99 96 97 98
341 338 340 348 341 338 351 350 356 1 2 359 357 1 359 357 0 2 15 9 351 350 347 358 7 355 32 34 98 96 94 98 99 103 103 106 104 99 98 97 98 100 101 97
339 340 348 352 342 338 351 347 349 360 8 7 357 2 5 7 9 5 17 8 343 352 351 357 354 346 28 72 90 96 96 98 102 102 102 103 102 102 101 100 100 99 100 100
351 339 351 0 350 345 342 351 350 358 355 15 8 6 10 0 358 1 1 354 357 350 356 356 345 352 20 60 82 91 96 101 104 106 107 108 108 107 105 104 103 106 104 101
346 0 352 4 0 357 356 348 341 353 347 15 15 16 7 7 8 7 352 347 357 3 360 355 358 4 25 35 51 76 91 102 106 105 105 103 105 107 109 111 104 104 101 98
24 353 338 0 11 357 352 350 344 349 357 1 14 18 19 16 11 353 355 355 5 9 4 1 7 14 24 26 34 43 54 92 101 103 109 114 115 114 110 108 106 107 103 96
45 348 25 35 12 345 359 358 353 344 353 357 354 12 25 14 9 5 2 3 12 6 6 2 9 12 16 22 27 29 38 47 82 100 101 105 111 110 111 111 110 105 104 106
11 5 19 24 11 21 5 2 360 353 354 349 359 17 9 28 10 13 9 8 7 1 9 7 9 13 15 20 25 26 31 44 44 77 89 97 103 101 103 106 105 107 110 115